[[{"header":{"parameterUnit":"m.s-1","parameterCategory":1,"la1":30.2991,"la2":30.254,"lo1":-89.0895,"lo2":-89.0444,"dy":0.0017,"dx":0.0017,"nx":28,"ny":28,"refTime":"2025-01-13T03:00:00:Z","depth":0,"parameterNumber":2,"parameterNumberName":"U-component_of_WINDS"},"data":[0,0,0,0,0,0,0,0,0,0,0,0,0,0,0,0,0,0,0,0,0,0,0,0,0,0,0,0,0,0,0,0,0,0,0,0,0,0,0,0,0,0,0,0,0,0,0,0,0,0,0,0,0,0,0,0,0,0,-5.0671,-5.0672,0,-5.0718,-5.0719,-5.0719,-5.0569,-5.0564,-5.056,-5.0555,-5.0609,-5.0614,-5.062,0,0,0,0,0,0,0,0,0,0,0,0,0,-5.0457,-5.0462,-5.0671,-5.0672,-5.0672,-5.0718,-5.0719,-5.0719,-5.057,-5.0564,-5.0559,-5.0553,-5.0607,-5.0614,-5.062,0,0,0,0,0,0,0,0,0,0,0,0,0,-5.0532,-5.0463,-5.0671,-5.0603,-5.0597,-5.0718,-5.0719,-5.0719,-5.0571,-5.0564,-5.0557,-5.0551,-5.0605,-5.0613,-5.0621,-5.0811,0,0,-5.0647,-5.0651,0,0,0,0,0,0,0,0,-5.0528,-5.054,-5.0612,-5.0608,-5.0602,-5.063,-5.0663,-5.075,-5.0573,-5.0581,-5.0555,-5.0547,-5.0622,-5.0629,-5.0653,-5.0814,-5.0816,-5.0648,-5.0653,-5.0657,-5.0659,0,0,0,0,0,0,0,-5.0523,-5.0537,-5.069,-5.0614,-5.0607,-5.0572,-5.0575,-5.0679,-5.064,-5.058,-5.0569,-5.0576,-5.0618,-5.0645,-5.0653,-5.0817,-5.0648,-5.0656,-5.0661,-5.0664,-5.1138,-5.1146,0,0,0,0,0,0,-5.0526,-5.0534,-5.0688,-5.0691,-5.0547,-5.0581,-5.0585,-5.0628,-5.0638,-5.0633,-5.0582,-5.0569,-5.0634,-5.0643,-5.0654,-5.0878,-5.0657,-5.0665,-5.067,-5.1131,-5.114,-5.1148,0,0,0,0,0,0,-5.0522,-5.0541,-5.0686,-5.061,-5.0625,-5.0592,-5.0643,-5.0633,-5.066,-5.064,-5.0633,-5.0617,-5.0629,-5.0642,-5.0773,-5.0878,-5.0669,-5.0677,-5.1122,-5.1134,-5.1144,-5.1328,0,0,0,0,0,0,-5.0516,-5.0541,-5.0611,-5.0612,-5.063,-5.0804,-5.0649,-5.0639,-5.0674,-5.0658,-5.067,-5.0666,-5.0624,-5.0762,-5.0782,-5.0886,-5.0683,-5.1113,-5.1127,-5.1141,-5.1312,-5.1344,-5.1371,0,0,0,0,0,-5.0509,-5.0661,-5.0615,-5.0635,-5.0717,-5.081,-5.082,-5.0768,-5.0683,-5.0755,-5.0742,-5.0665,-5.0863,-5.0776,-5.0798,-5.0906,-5.1106,-5.1123,-5.114,-5.1299,-5.1338,-5.137,0,0,0,0,0,0,-5.0675,-5.066,-5.0609,-5.0766,-5.079,-5.0784,-5.0873,-5.081,-5.086,-5.0843,-5.0778,-5.0782,-5.0926,-5.0929,-5.0832,-5.1092,-5.097,-5.0992,-5.1084,-5.1121,-5.115,-5.1146,-5.069,0,0,0,0,0,-5.0729,-5.0804,-5.0788,-5.0928,-5.0943,-5.0907,-5.0945,-5.0902,-5.0926,-5.0936,-5.0932,-5.096,-5.1028,-5.1074,-5.1136,-5.1312,-5.1314,-5.1397,-5.1427,-5.1451,-5.1471,-5.1567,-5.1604,-5.1204,-5.1203,-5.1203,0,0,-5.0843,-5.0844,-5.0896,-5.0961,-5.0975,-5.1056,-5.0916,-5.1007,-5.1067,-5.095,-5.1073,-5.1073,-5.1099,-5.1254,-5.1322,-5.1261,-5.1582,-5.1472,-5.1492,-5.1499,-5.1588,-5.1626,-5.166,-5.1215,-5.1213,-5.1211,0,0,-5.1092,-5.11,-5.1218,-5.1235,-5.1257,-5.1232,-5.1261,-5.1265,-5.1259,-5.1382,-5.1296,-5.1368,-5.1486,-5.1509,-5.1536,-5.1796,-5.1728,-5.1818,-5.1972,-5.2065,-5.2097,-5.2125,-5.2219,-5.2253,-5.1838,-5.1838,-5.1838,0,-5.1231,-5.1347,-5.1287,-5.1384,-5.1417,-5.1313,-5.1434,-5.1453,-5.1496,-5.1522,-5.1452,-5.16,-5.161,-5.177,-5.1833,-5.1858,-5.189,-5.1816,-5.2097,-5.2124,-5.2149,-5.2238,-5.2274,-5.1849,-5.1848,-5.1847,-5.1846,0,-5.1518,-5.1601,-5.1694,-5.1736,-5.1779,-5.1888,-5.1846,-5.1897,-5.1851,-5.1835,-5.1963,-5.1971,-5.2033,-5.2068,-5.2025,-5.2223,-5.2185,-5.2107,-5.1984,-5.2199,-5.2282,-5.2316,-5.1865,-5.1861,-5.1857,-5.1855,0,0,-5.1872,-5.188,-5.1915,-5.1934,-5.1952,-5.2016,-5.2121,-5.218,-5.2226,-5.226,-5.2348,-5.2451,-5.238,-5.2411,-5.237,-5.2452,-5.266,-5.2365,-5.2364,-5.242,-5.2881,-5.2939,-5.298,-5.2614,-5.262,-5.2625,-5.2879,0,-5.2117,-5.2295,-5.2245,-5.2424,-5.2501,-5.2405,-5.2497,-5.2519,-5.2507,-5.2572,-5.2558,-5.2633,-5.2533,-5.2551,-5.2628,-5.2618,-5.2751,-5.2599,-5.2698,-5.2702,-5.2695,-5.3023,-5.3085,-5.3323,-5.2911,-5.2916,-5.292,0,-5.2427,-5.2472,-5.2659,-5.2666,-5.2696,-5.2779,-5.2831,-5.2893,-5.2918,-5.2903,-5.2939,-5.2881,-5.2987,-5.2863,-5.301,-5.2907,-5.2945,-5.2947,-5.2955,-5.2962,-5.2825,-5.3041,-5.3398,-5.3434,-5.297,-5.2966,-5.2963,0,-5.2669,-5.2776,-5.2901,-5.292,-5.2931,-5.2992,-5.3,-5.3017,-5.3056,-5.3102,-5.3128,-5.3186,-5.3219,-5.3267,-5.3227,-5.314,-5.3381,-5.3253,-5.3374,-5.3375,-5.3429,-5.3426,-5.3799,-5.3452,-5.3452,-5.3451,-5.345,0,-5.2949,-5.3067,-5.301,-5.3088,-5.3218,-5.316,-5.3292,-5.3289,-5.3305,-5.3382,-5.3303,-5.3377,-5.332,-5.3391,-5.3361,-5.3488,-5.3503,-5.3496,-5.3487,-5.3504,-5.3505,-5.3528,-5.3511,-5.3461,-5.3459,-5.3457,-5.3455,0,-5.324,-5.3206,-5.3337,-5.3336,-5.3339,-5.3436,-5.3436,-5.3509,-5.3491,-5.359,-5.361,-5.3583,-5.3661,-5.3627,-5.371,-5.369,-5.3854,-5.3822,-5.3845,-5.3838,-5.396,-5.395,-5.4361,-5.4413,-5.4033,-5.4036,-5.404,0,-5.3421,-5.351,-5.3519,-5.3564,-5.3577,-5.3651,-5.3691,-5.3638,-5.3683,-5.3719,-5.3789,-5.386,-5.3914,-5.4046,-5.4035,-5.4099,-5.4069,-5.4208,-5.4078,-5.4092,-5.4072,-5.4068,-5.4077,-5.4235,-5.4239,-5.4243,-5.4246,0,-5.3747,-5.3726,-5.3786,-5.3841,-5.3891,-5.3932,-5.3967,-5.4009,-5.3957,-5.4013,-5.4092,-5.4134,-5.4219,-5.4292,-5.4349,-5.4359,-5.4296,-5.4287,-5.4318,-5.4337,-5.4347,-5.4345,-5.3918,-5.4278,-5.4275,-5.4272,-5.4271,-5.4269,-5.399,-5.4065,-5.4083,-5.4153,-5.4173,-5.4208,-5.4277,-5.4267,-5.4332,-5.4395,-5.4361,-5.4454,-5.4478,-5.4547,-5.4567,-5.464,-5.4585,-5.463,-5.4642,-5.4654,-5.4671,-5.4335,-5.465,-5.4649,-5.4648,-5.4647,-5.4647,0,-5.4312,-5.432,-5.4384,-5.4435,-5.4491,-5.4424,-5.446,-5.4511,-5.4593,-5.4621,-5.4676,-5.4768,-5.4839,-5.4834,-5.49,-5.496,-5.4933,-5.4979,-5.4975,-5.4978,-5.4716,-5.4682,-5.5,-5.5,-5.5,-5.5,-5.5,-5.5,-5.4487,-5.4611,-5.4593,-5.4727,-5.4733,-5.4822,-5.4849,-5.4881,-5.4902,-5.5008,-5.5066,-5.5062,-5.5077,-5.5144,-5.5207,-5.5204,-5.5233,-5.529,-5.5277,-5.5032,-5.4997,-5.4963,-5.4932,-5.5297,-5.5297,-5.5534,-5.5536,-5.5537]},{"header":{"parameterUnit":"m.s-1","parameterCategory":1,"la1":30.2991,"la2":30.254,"lo1":-89.0895,"lo2":-89.0444,"dy":0.0017,"dx":0.0017,"nx":28,"ny":28,"refTime":"2025-01-13T03:00:00:Z","depth":0,"parameterNumber":3,"parameterNumberName":"V-component_of_WINDS"},"data":[0,0,0,0,0,0,0,0,0,0,0,0,0,0,0,0,0,0,0,0,0,0,0,0,0,0,0,0,0,0,0,0,0,0,0,0,0,0,0,0,0,0,0,0,0,0,0,0,0,0,0,0,0,0,0,0,0,0,-3.1268,-3.1266,0,-3.1085,-3.1083,-3.1081,-3.0966,-3.0966,-3.0965,-3.0965,-3.0769,-3.0765,-3.076,0,0,0,0,0,0,0,0,0,0,0,0,0,-3.151,-3.1507,-3.1269,-3.1266,-3.1264,-3.1085,-3.1083,-3.108,-3.0966,-3.0966,-3.0965,-3.0964,-3.0771,-3.0765,-3.076,0,0,0,0,0,0,0,0,0,0,0,0,0,-3.1374,-3.1505,-3.1269,-3.1186,-3.1177,-3.1086,-3.1082,-3.1079,-3.0967,-3.0966,-3.0965,-3.0964,-3.0773,-3.0766,-3.0759,-3.0734,0,0,-3.0738,-3.0735,0,0,0,0,0,0,0,0,-3.1382,-3.1365,-3.12,-3.1191,-3.1181,-3.1048,-3.1096,-3.0963,-3.0967,-3.1046,-3.0965,-3.0963,-3.0862,-3.0848,-3.0815,-3.0725,-3.0717,-3.0737,-3.0733,-3.073,-3.0728,0,0,0,0,0,0,0,-3.1391,-3.1372,-3.1196,-3.1198,-3.1186,-3.1154,-3.1134,-3.107,-3.0961,-3.1039,-3.103,-3.1011,-3.0857,-3.0822,-3.081,-3.0714,-3.0737,-3.0731,-3.0727,-3.0724,-3.0587,-3.0587,0,0,0,0,0,0,-3.1415,-3.1381,-3.1201,-3.119,-3.1281,-3.1151,-3.1128,-3.1091,-3.0962,-3.0941,-3.1012,-3.1006,-3.0835,-3.0818,-3.0802,-3.076,-3.073,-3.0724,-3.072,-3.0586,-3.0587,-3.0587,0,0,0,0,0,0,-3.1421,-3.14,-3.1209,-3.1283,-3.1256,-3.1148,-3.1107,-3.1088,-3.1054,-3.0941,-3.092,-3.0997,-3.0833,-3.0812,-3.0751,-3.0752,-3.0721,-3.0714,-3.0585,-3.0586,-3.0587,-3.068,0,0,0,0,0,0,-3.1428,-3.1403,-3.1396,-3.1284,-3.1253,-3.1164,-3.1107,-3.1085,-3.1043,-3.1034,-3.0922,-3.0902,-3.0831,-3.0762,-3.0744,-3.0742,-3.0709,-3.0585,-3.0586,-3.0587,-3.0676,-3.0683,-3.069,0,0,0,0,0,-3.1437,-3.1429,-3.1396,-3.1375,-3.1242,-3.1165,-3.1146,-3.1067,-3.1044,-3.1032,-3.0959,-3.0906,-3.0755,-3.0757,-3.0736,-3.0732,-3.0584,-3.0586,-3.0587,-3.0673,-3.0682,-3.069,0,0,0,0,0,0,-3.1542,-3.1413,-3.1375,-3.1331,-3.126,-3.1146,-3.113,-3.108,-3.1012,-3.1006,-3.0907,-3.0883,-3.083,-3.0774,-3.0779,-3.0697,-3.0663,-3.066,-3.0736,-3.0744,-3.0751,-3.0764,-3.0703,0,0,0,0,0,-3.1561,-3.1512,-3.14,-3.1371,-3.1338,-3.124,-3.1204,-3.1148,-3.107,-3.1039,-3.0961,-3.0885,-3.0819,-3.0778,-3.0712,-3.0667,-3.0638,-3.0653,-3.066,-3.0666,-3.0665,-3.0631,-3.0635,-3.0591,-3.0591,-3.0591,0,0,-3.1597,-3.152,-3.1496,-3.139,-3.1329,-3.1277,-3.1216,-3.1165,-3.1124,-3.103,-3.0967,-3.0907,-3.0814,-3.076,-3.0732,-3.0712,-3.067,-3.0668,-3.0674,-3.0668,-3.0632,-3.0636,-3.064,-3.0592,-3.0592,-3.0591,0,0,-3.1637,-3.1576,-3.1543,-3.1482,-3.139,-3.1324,-3.1317,-3.1209,-3.1166,-3.1101,-3.1028,-3.0976,-3.0868,-3.0803,-3.0756,-3.0766,-3.0712,-3.0747,-3.0783,-3.0751,-3.0754,-3.0757,-3.0757,-3.0758,-3.0745,-3.0746,-3.0746,0,-3.1694,-3.1616,-3.1532,-3.1484,-3.1438,-3.1351,-3.1314,-3.1258,-3.1148,-3.1116,-3.1096,-3.0954,-3.0886,-3.0812,-3.0814,-3.078,-3.0764,-3.0759,-3.0761,-3.0763,-3.0764,-3.0762,-3.0763,-3.075,-3.075,-3.0749,-3.0749,0,-3.1688,-3.1634,-3.1618,-3.1515,-3.1466,-3.1425,-3.133,-3.1291,-3.1238,-3.1173,-3.1105,-3.1019,-3.0932,-3.0911,-3.0859,-3.0828,-3.0818,-3.0781,-3.0744,-3.0774,-3.0771,-3.077,-3.0757,-3.0755,-3.0754,-3.0753,0,0,-3.1791,-3.164,-3.1635,-3.1585,-3.1474,-3.1429,-3.138,-3.1297,-3.1262,-3.1188,-3.1142,-3.1049,-3.1013,-3.0959,-3.0898,-3.0871,-3.0878,-3.0836,-3.0832,-3.0844,-3.0833,-3.0861,-3.0862,-3.0842,-3.0842,-3.0841,-3.084,0,-3.1812,-3.1724,-3.1645,-3.1583,-3.1529,-3.1444,-3.14,-3.1325,-3.1262,-3.1204,-3.1133,-3.1068,-3.1027,-3.0993,-3.0962,-3.0884,-3.0874,-3.0883,-3.0794,-3.0792,-3.0819,-3.0861,-3.0891,-3.0894,-3.0838,-3.0838,-3.0838,0,-3.1826,-3.1756,-3.169,-3.158,-3.1554,-3.1518,-3.1431,-3.1379,-3.129,-3.1245,-3.1184,-3.1119,-3.1058,-3.1028,-3.094,-3.0948,-3.0906,-3.0862,-3.0859,-3.0847,-3.0816,-3.0847,-3.0893,-3.0893,-3.0836,-3.0836,-3.0836,0,-3.1903,-3.1792,-3.1737,-3.1697,-3.1569,-3.1544,-3.1489,-3.1399,-3.1352,-3.1276,-3.1243,-3.116,-3.1114,-3.1049,-3.0962,-3.0949,-3.0881,-3.0845,-3.0838,-3.0841,-3.0828,-3.083,-3.0866,-3.0804,-3.0804,-3.0804,-3.0804,0,-3.1934,-3.1896,-3.177,-3.1736,-3.1688,-3.1595,-3.155,-3.1487,-3.1407,-3.1355,-3.1275,-3.1228,-3.1116,-3.1054,-3.0985,-3.092,-3.09,-3.0859,-3.0841,-3.0865,-3.087,-3.0835,-3.0832,-3.0804,-3.0804,-3.0804,-3.0804,0,-3.2013,-3.1928,-3.1861,-3.1744,-3.1714,-3.1684,-3.1582,-3.1543,-3.1474,-3.1409,-3.1388,-3.1279,-3.1201,-3.1108,-3.0999,-3.0952,-3.0892,-3.0866,-3.0923,-3.0912,-3.091,-3.0911,-3.0924,-3.0919,-3.0864,-3.0865,-3.0865,0,-3.2038,-3.2007,-3.1886,-3.1847,-3.1795,-3.1733,-3.1684,-3.159,-3.1541,-3.1435,-3.1407,-3.1324,-3.1252,-3.113,-3.1038,-3.0953,-3.0923,-3.0933,-3.0909,-3.0933,-3.0919,-3.0921,-3.0915,-3.0939,-3.0941,-3.0941,-3.0942,0,-3.209,-3.2048,-3.1983,-3.1901,-3.1845,-3.1776,-3.1703,-3.1674,-3.1563,-3.1512,-3.1433,-3.1377,-3.1265,-3.1181,-3.1084,-3.1021,-3.0961,-3.095,-3.0943,-3.0968,-3.1001,-3.0979,-3.0938,-3.095,-3.0949,-3.0949,-3.0948,-3.0948,-3.2139,-3.2106,-3.2015,-3.1943,-3.1878,-3.1811,-3.1767,-3.1693,-3.1625,-3.1529,-3.1476,-3.1396,-3.1301,-3.1165,-3.1104,-3.1037,-3.1016,-3.1008,-3.1005,-3.1004,-3.101,-3.1013,-3.1019,-3.1019,-3.1019,-3.1018,-3.1018,0,-3.2184,-3.2121,-3.2056,-3.1956,-3.1898,-3.185,-3.1764,-3.1718,-3.165,-3.1568,-3.1499,-3.1404,-3.1321,-3.1222,-3.1131,-3.1096,-3.1065,-3.1075,-3.1075,-3.1061,-3.1035,-3.1049,-3.11,-3.11,-3.11,-3.11,-3.11,-3.11,-3.2201,-3.214,-3.2087,-3.1991,-3.1926,-3.185,-3.1805,-3.174,-3.1674,-3.1573,-3.1504,-3.1441,-3.135,-3.1251,-3.117,-3.1143,-3.1112,-3.1129,-3.1093,-3.107,-3.1063,-3.1057,-3.1069,-3.1123,-3.1123,-3.1123,-3.1123,-3.1123]}]]